| time (UTC) | temp F | wind direction | speed knots | gust knots | rain 1hr in | rain 24hr in | rain mn in | humidity % | barometer mb |
| 20260507101554 | 55 | 263 | 0.9 | 1.7 | 0.00 | 0.00 | 0.00 | 40 | 1021.0 |
| 20260507101055 | 55 | 256 | 0.9 | 1.7 | 0.00 | 0.00 | 0.00 | 40 | 1021.0 |
| 20260507100553 | 55 | 264 | 0.0 | 0.9 | 0.00 | 0.00 | 0.00 | 40 | 1021.0 |
| 20260507100051 | 55 | 263 | 0.0 | 0.9 | 0.00 | 0.00 | 0.00 | 40 | 1020.9 |
| 20260507095551 | 55 | 269 | 0.0 | 1.7 | 0.00 | 0.00 | 0.00 | 40 | 1020.8 |
| 20260507091546 | 57 | 263 | 0.9 | 1.7 | 0.00 | 0.00 | 0.00 | 38 | 1020.5 |
| 20260507091044 | 57 | 259 | 0.9 | 1.7 | 0.00 | 0.00 | 0.00 | 37 | 1020.5 |
| 20260507090542 | 57 | 250 | 0.0 | 1.7 | 0.00 | 0.00 | 0.00 | 37 | 1020.5 |
| 20260507090041 | 57 | 254 | 0.0 | 1.7 | 0.00 | 0.00 | 0.00 | 37 | 1020.5 |
| 20260507085540 | 57 | 259 | 0.0 | 0.9 | 0.00 | 0.00 | 0.00 | 37 | 1020.5 |
| 20260507085040 | 57 | 258 | 0.0 | 1.7 | 0.00 | 0.00 | 0.00 | 37 | 1020.5 |
| 20260507084538 | 57 | 258 | 0.0 | 1.7 | 0.00 | 0.00 | 0.00 | 37 | 1020.5 |
| 20260507084038 | 57 | 261 | 0.0 | 1.7 | 0.00 | 0.00 | 0.00 | 37 | 1020.5 |
| 20260507083538 | 57 | 261 | 0.0 | 1.7 | 0.00 | 0.00 | 0.00 | 37 | 1020.5 |
| 20260507083038 | 57 | 288 | 0.0 | 1.7 | 0.00 | 0.00 | 0.00 | 37 | 1020.5 |
| 20260507082538 | 57 | 288 | 0.9 | 1.7 | 0.00 | 0.00 | 0.00 | 37 | 1020.5 |
| 20260507082035 | 57 | 288 | 0.9 | 1.7 | 0.00 | 0.00 | 0.00 | 37 | 1020.5 |
| 20260507081536 | 57 | 261 | 0.9 | 1.7 | 0.00 | 0.00 | 0.00 | 37 | 1020.4 |
| 20260507081035 | 57 | 255 | 0.0 | 1.7 | 0.00 | 0.00 | 0.00 | 37 | 1020.4 |
| 20260507080030 | 57 | 258 | 0.0 | 1.7 | 0.00 | 0.00 | 0.00 | 37 | 1020.4 |
| 20260507075530 | 57 | 271 | 0.0 | 1.7 | 0.00 | 0.00 | 0.00 | 37 | 1020.4 |
| 20260507074528 | 57 | 260 | 0.0 | 1.7 | 0.00 | 0.00 | 0.00 | 37 | 1020.4 |
| 20260507073026 | 58 | 275 | 0.0 | 1.7 | 0.00 | 0.00 | 0.00 | 36 | 1020.5 |
| 20260507072026 | 58 | 277 | 0.9 | 2.6 | 0.00 | 0.00 | 0.00 | 36 | 1020.4 |
| 20260507071525 | 58 | 258 | 1.7 | 2.6 | 0.00 | 0.00 | 0.00 | 36 | 1020.4 |
| 20260507071024 | 58 | 257 | 0.9 | 2.6 | 0.00 | 0.00 | 0.00 | 35 | 1020.2 |
| 20260507070024 | 59 | 269 | 0.9 | 2.6 | 0.00 | 0.00 | 0.00 | 35 | 1020.2 |
| 20260507065523 | 59 | 264 | 0.9 | 1.7 | 0.00 | 0.00 | 0.00 | 35 | 1020.2 |
| 20260507065024 | 59 | 269 | 0.9 | 2.6 | 0.00 | 0.00 | 0.00 | 35 | 1020.1 |
| 20260507064524 | 59 | 279 | 0.9 | 2.6 | 0.00 | 0.00 | 0.00 | 35 | 1020.1 |
| 20260507064024 | 59 | 261 | 1.7 | 2.6 | 0.00 | 0.00 | 0.00 | 34 | 1020.0 |
| 20260507063524 | 60 | 265 | 1.7 | 2.6 | 0.00 | 0.00 | 0.00 | 34 | 1020.0 |
| 20260507063024 | 60 | 285 | 0.9 | 2.6 | 0.00 | 0.00 | 0.00 | 34 | 1019.9 |
| 20260507062523 | 60 | 264 | 0.9 | 2.6 | 0.00 | 0.00 | 0.00 | 34 | 1019.9 |
| 20260507062023 | 60 | 255 | 0.9 | 2.6 | 0.00 | 0.00 | 0.00 | 34 | 1019.8 |
| 20260507061524 | 60 | 260 | 0.9 | 2.6 | 0.00 | 0.00 | 0.00 | 34 | 1019.8 |
| 20260507061024 | 60 | 257 | 0.9 | 2.6 | 0.00 | 0.00 | 0.00 | 33 | 1019.6 |
| 20260507055524 | 61 | 260 | 0.9 | 3.5 | 0.00 | 0.00 | 0.00 | 32 | 1019.6 |
| 20260507055024 | 62 | 260 | 0.9 | 3.5 | 0.00 | 0.00 | 0.00 | 32 | 1019.6 |
| 20260507054523 | 62 | 260 | 0.9 | 2.6 | 0.00 | 0.00 | 0.00 | 31 | 1019.6 |
| 20260507054024 | 62 | 248 | 0.9 | 2.6 | 0.00 | 0.00 | 0.00 | 31 | 1019.6 |
| 20260507053523 | 62 | 254 | 0.9 | 1.7 | 0.00 | 0.00 | 0.00 | 31 | 1019.6 |
| 20260507053024 | 62 | 257 | 0.9 | 2.6 | 0.00 | 0.00 | 0.00 | 31 | 1019.3 |
| 20260507052020 | 63 | 259 | 0.9 | 1.7 | 0.00 | 0.00 | 0.00 | 31 | 1019.2 |
| 20260507051520 | 63 | 258 | 0.9 | 2.6 | 0.00 | 0.00 | 0.00 | 31 | 1019.1 |
| 20260507051019 | 63 | 254 | 1.7 | 2.6 | 0.00 | 0.00 | 0.00 | 30 | 1019.1 |
| 20260507050014 | 64 | 274 | 1.7 | 4.3 | 0.00 | 0.00 | 0.00 | 30 | 1019.0 |
| 20260507045516 | 64 | 271 | 1.7 | 4.3 | 0.00 | 0.00 | 0.00 | 30 | 1019.0 |
| 20260507045014 | 64 | 259 | 1.7 | 3.5 | 0.00 | 0.00 | 0.00 | 29 | 1018.9 |
| 20260507044512 | 64 | 236 | 1.7 | 2.6 | 0.00 | 0.00 | 0.00 | 29 | 1018.9 |
| 20260507044011 | 65 | 265 | 0.9 | 2.6 | 0.00 | 0.00 | 0.00 | 29 | 1018.9 |
| 20260507043510 | 65 | 250 | 0.9 | 2.6 | 0.00 | 0.00 | 0.00 | 28 | 1018.9 |
| 20260507043011 | 65 | 254 | 0.9 | 2.6 | 0.00 | 0.00 | 0.00 | 28 | 1018.6 |
| 20260507042511 | 65 | 269 | 0.9 | 1.7 | 0.00 | 0.00 | 0.00 | 28 | 1018.4 |
| 20260507042010 | 65 | 253 | 0.0 | 2.6 | 0.00 | 0.00 | 0.00 | 28 | 1018.4 |
| 20260507041511 | 66 | 258 | 0.0 | 2.6 | 0.00 | 0.00 | 0.00 | 28 | 1018.2 |
| 20260507041009 | 66 | 261 | 0.0 | 0.9 | 0.00 | 0.00 | 0.00 | 27 | 1018.2 |
| 20260507040508 | 66 | 275 | 0.0 | 2.6 | 0.00 | 0.00 | 0.00 | 27 | 1018.1 |
| 20260507023500 | 69 | 173 | 6.1 | 15.6 | 0.00 | 0.00 | 0.00 | 25 | 1016.4 |
| 20260507023000 | 69 | 225 | 5.2 | 13.0 | 0.00 | 0.00 | 0.00 | 25 | 1016.4 |
| 20260507022500 | 69 | 186 | 5.2 | 12.2 | 0.00 | 0.00 | 0.00 | 25 | 1016.4 |
| 20260507022001 | 69 | 180 | 5.2 | 12.2 | 0.00 | 0.00 | 0.00 | 25 | 1016.3 |
| 20260507021500 | 69 | 188 | 6.1 | 12.2 | 0.00 | 0.00 | 0.00 | 25 | 1016.3 |
| 20260507020500 | 69 | 140 | 6.1 | 13.0 | 0.00 | 0.00 | 0.00 | 25 | 1016.2 |
| 20260507020001 | 69 | 201 | 5.2 | 10.4 | 0.00 | 0.00 | 0.00 | 25 | 1016.2 |
| 20260507015501 | 69 | 170 | 5.2 | 10.4 | 0.00 | 0.00 | 0.00 | 25 | 1016.2 |
| 20260507015000 | 70 | 184 | 4.3 | 12.2 | 0.00 | 0.00 | 0.00 | 25 | 1016.3 |
| 20260507014500 | 70 | 161 | 3.5 | 12.2 | 0.00 | 0.00 | 0.00 | 24 | 1016.4 |
| 20260507014001 | 70 | 159 | 3.5 | 9.6 | 0.00 | 0.00 | 0.00 | 24 | 1016.2 |
| 20260507013500 | 70 | 200 | 3.5 | 9.6 | 0.00 | 0.00 | 0.00 | 24 | 1016.0 |
| 20260507012958 | 70 | 173 | 2.6 | 7.0 | 0.00 | 0.00 | 0.00 | 24 | 1016.2 |
| 20260507011959 | 70 | 148 | 3.5 | 7.0 | 0.00 | 0.00 | 0.00 | 24 | 1016.0 |
| 20260507011458 | 70 | 169 | 3.5 | 7.0 | 0.00 | 0.00 | 0.00 | 23 | 1015.9 |
| 20260507010958 | 71 | 195 | 3.5 | 8.7 | 0.00 | 0.00 | 0.00 | 23 | 1016.0 |
| 20260507010459 | 71 | 226 | 2.6 | 8.7 | 0.00 | 0.00 | 0.00 | 22 | 1015.9 |
| 20260507005958 | 71 | 179 | 2.6 | 5.2 | 0.00 | 0.00 | 0.00 | 22 | 1015.9 |
| 20260507005458 | 71 | 170 | 1.7 | 5.2 | 0.00 | 0.00 | 0.00 | 23 | 1015.8 |
| 20260507004458 | 72 | 185 | 2.6 | 5.2 | 0.00 | 0.00 | 0.00 | 22 | 1015.8 |
| 20260507003458 | 73 | 173 | 2.6 | 7.0 | 0.00 | 0.01 | 0.00 | 21 | 1015.7 |
| 20260507002958 | 75 | 162 | 2.6 | 6.1 | 0.00 | 0.01 | 0.00 | 21 | 1015.9 |
| 20260507002457 | 74 | 149 | 3.5 | 7.8 | 0.00 | 0.01 | 0.00 | 21 | 1015.8 |
| 20260507001959 | 74 | 157 | 3.5 | 7.8 | 0.00 | 0.01 | 0.00 | 21 | 1015.6 |
| 20260507001459 | 74 | 136 | 2.6 | 6.1 | 0.00 | 0.01 | 0.00 | 20 | 1015.5 |
| 20260507000957 | 74 | 135 | 1.7 | 4.3 | 0.00 | 0.01 | 0.00 | 20 | 1015.7 |
| 20260506235954 | 74 | 116 | 1.7 | 2.6 | 0.00 | 0.01 | 0.00 | 20 | 1015.5 |
| 20260506235456 | 74 | 119 | 1.7 | 3.5 | 0.00 | 0.01 | 0.00 | 20 | 1015.4 |
| 20260506234457 | 74 | 150 | 1.7 | 3.5 | 0.00 | 0.01 | 0.00 | 20 | 1015.5 |
| 20260506233957 | 75 | 106 | 1.7 | 3.5 | 0.00 | 0.01 | 0.00 | 19 | 1015.5 |
| 20260506233457 | 75 | 157 | 0.9 | 3.5 | 0.00 | 0.01 | 0.00 | 19 | 1015.4 |
| 20260506232955 | 76 | 157 | 1.7 | 5.2 | 0.00 | 0.01 | 0.00 | 18 | 1015.5 |
| 20260506232455 | 77 | 151 | 2.6 | 5.2 | 0.00 | 0.01 | 0.00 | 19 | 1015.4 |
| 20260506231955 | 78 | 142 | 1.7 | 4.3 | 0.00 | 0.01 | 0.00 | 18 | 1015.5 |
| 20260506231455 | 78 | 176 | 1.7 | 4.3 | 0.00 | 0.01 | 0.00 | 19 | 1015.5 |
| 20260506230454 | 77 | 113 | 2.6 | 5.2 | 0.00 | 0.01 | 0.00 | 19 | 1015.6 |
| 20260506225952 | 77 | 132 | 1.7 | 4.3 | 0.00 | 0.01 | 0.00 | 19 | 1015.6 |
| 20260506224451 | 77 | 167 | 1.7 | 4.3 | 0.00 | 0.01 | 0.00 | 19 | 1015.7 |
| 20260506223950 | 76 | 166 | 1.7 | 3.5 | 0.00 | 0.01 | 0.00 | 19 | 1015.8 |
| 20260506223451 | 76 | 180 | 1.7 | 3.5 | 0.00 | 0.01 | 0.00 | 19 | 1015.8 |
| 20260506222950 | 77 | 169 | 0.9 | 3.5 | 0.00 | 0.01 | 0.00 | 18 | 1015.8 |
| 20260506222451 | 78 | 142 | 1.7 | 3.5 | 0.00 | 0.01 | 0.00 | 19 | 1015.9 |
| 20260506221950 | 78 | 147 | 0.9 | 4.3 | 0.00 | 0.01 | 0.00 | 18 | 1016.0 |
| 20260506221450 | 78 | 142 | 0.9 | 4.3 | 0.00 | 0.01 | 0.00 | 19 | 1016.0 |
| 20260506220950 | 78 | 89 | 0.9 | 3.5 | 0.00 | 0.01 | 0.00 | 18 | 1016.3 |
| 20260506220448 | 78 | 336 | 0.9 | 3.5 | 0.00 | 0.01 | 0.00 | 18 | 1016.3 |
| 20260506214945 | 76 | 109 | 1.7 | 3.5 | 0.00 | 0.01 | 0.00 | 20 | 1016.7 |
| 20260506213945 | 75 | 217 | 1.7 | 4.3 | 0.00 | 0.01 | 0.00 | 20 | 1016.8 |
| 20260506213442 | 75 | 196 | 1.7 | 3.5 | 0.00 | 0.01 | 0.00 | 20 | 1016.9 |
| 20260506212942 | 76 | 198 | 1.7 | 3.5 | 0.00 | 0.01 | 0.00 | 19 | 1017.1 |
| 20260506211942 | 77 | 259 | 0.9 | 3.5 | 0.00 | 0.01 | 0.00 | 19 | 1017.2 |
| 20260506210939 | 75 | 274 | 0.9 | 3.5 | 0.00 | 0.01 | 0.00 | 21 | 1017.3 |
| 20260506210436 | 74 | 306 | 0.9 | 3.5 | 0.00 | 0.01 | 0.00 | 22 | 1017.3 |
| 20260506205938 | 74 | 190 | 0.9 | 3.5 | 0.00 | 0.01 | 0.00 | 21 | 1017.3 |
| 20260506205434 | 75 | 180 | 0.9 | 3.5 | 0.00 | 0.01 | 0.00 | 21 | 1017.4 |
| 20260506204933 | 76 | 34 | 0.0 | 3.5 | 0.00 | 0.01 | 0.00 | 21 | 1017.4 |
| 20260506204433 | 76 | 89 | 0.9 | 4.3 | 0.00 | 0.01 | 0.00 | 20 | 1017.4 |
| 20260506203432 | 77 | 31 | 0.9 | 5.2 | 0.00 | 0.01 | 0.00 | 21 | 1017.4 |
| 20260506202432 | 77 | 50 | 1.7 | 5.2 | 0.00 | 0.01 | 0.00 | 21 | 1017.5 |
| 20260506201932 | 77 | 119 | 1.7 | 5.2 | 0.00 | 0.01 | 0.00 | 22 | 1017.5 |
| 20260506201432 | 76 | 117 | 0.9 | 3.5 | 0.00 | 0.01 | 0.00 | 21 | 1017.6 |
| 20260506200926 | 76 | 131 | 1.7 | 4.3 | 0.00 | 0.01 | 0.00 | 22 | 1017.7 |
| 20260506195924 | 76 | 127 | 0.9 | 2.6 | 0.00 | 0.01 | 0.00 | 22 | 1017.9 |
| 20260506195425 | 75 | 100 | 0.9 | 4.3 | 0.00 | 0.01 | 0.00 | 24 | 1017.9 |
| 20260506194924 | 74 | 306 | 0.9 | 4.3 | 0.00 | 0.01 | 0.00 | 22 | 1018.0 |
| 20260506194425 | 74 | 150 | 0.9 | 3.5 | 0.00 | 0.01 | 0.00 | 24 | 1018.0 |
| 20260506193925 | 74 | 125 | 0.9 | 3.5 | 0.00 | 0.01 | 0.00 | 24 | 1018.1 |
| 20260506193422 | 74 | 30 | 0.9 | 5.2 | 0.00 | 0.01 | 0.00 | 24 | 1018.1 |
| 20260506192922 | 74 | 328 | 0.9 | 5.2 | 0.00 | 0.01 | 0.00 | 23 | 1018.2 |
| 20260506192420 | 73 | 53 | 0.9 | 2.6 | 0.00 | 0.01 | 0.00 | 24 | 1018.3 |
| 20260506191420 | 72 | 49 | 0.9 | 2.6 | 0.00 | 0.01 | 0.00 | 25 | 1018.4 |
| 20260506190921 | 71 | 84 | 1.7 | 4.3 | 0.00 | 0.01 | 0.00 | 25 | 1018.4 |
| 20260506190420 | 71 | 5 | 1.7 | 4.3 | 0.00 | 0.01 | 0.00 | 24 | 1018.5 |
| 20260506185918 | 72 | 44 | 0.9 | 4.3 | 0.00 | 0.01 | 0.00 | 25 | 1018.5 |
| 20260506185419 | 71 | 105 | 0.9 | 2.6 | 0.00 | 0.01 | 0.00 | 25 | 1018.6 |
| 20260506184416 | 71 | 114 | 0.9 | 2.6 | 0.00 | 0.01 | 0.00 | 26 | 1018.8 |
| 20260506182913 | 70 | 116 | 0.9 | 2.6 | 0.00 | 0.01 | 0.00 | 26 | 1019.0 |
| 20260506182410 | 70 | 98 | 0.9 | 2.6 | 0.00 | 0.01 | 0.00 | 27 | 1019.2 |
| 20260506181908 | 69 | 110 | 0.9 | 2.6 | 0.00 | 0.01 | 0.00 | 27 | 1019.1 |
| 20260506181409 | 68 | 22 | 0.9 | 2.6 | 0.00 | 0.01 | 0.00 | 28 | 1019.2 |
| 20260506180906 | 68 | 355 | 0.9 | 4.3 | 0.00 | 0.01 | 0.00 | 28 | 1019.2 |
| 20260506175402 | 68 | 79 | 0.9 | 3.5 | 0.00 | 0.01 | 0.00 | 28 | 1019.1 |
| 20260506174902 | 68 | 140 | 0.9 | 3.5 | 0.00 | 0.01 | 0.00 | 28 | 1019.2 |
| 20260506174400 | 67 | 74 | 0.0 | 2.6 | 0.00 | 0.01 | 0.00 | 29 | 1019.3 |
| 20260506173858 | 66 | 40 | 0.9 | 2.6 | 0.00 | 0.01 | 0.00 | 30 | 1019.3 |
| 20260506172858 | 66 | 82 | 0.9 | 2.6 | 0.00 | 0.01 | 0.00 | 30 | 1019.3 |
| 20260506172358 | 66 | 11 | 0.9 | 2.6 | 0.00 | 0.01 | 0.00 | 30 | 1019.4 |
| 20260506171352 | 66 | 69 | 1.7 | 2.6 | 0.00 | 0.01 | 0.00 | 29 | 1019.4 |
| 20260506170850 | 66 | 119 | 0.9 | 2.6 | 0.00 | 0.01 | 0.00 | 30 | 1019.3 |
| 20260506170348 | 65 | 109 | 0.9 | 2.6 | 0.00 | 0.01 | 0.00 | 32 | 1019.3 |
| 20260506165848 | 64 | 80 | 0.9 | 2.6 | 0.00 | 0.01 | 0.00 | 31 | 1019.3 |
| 20260506164846 | 64 | 123 | 0.9 | 2.6 | 0.00 | 0.01 | 0.00 | 30 | 1019.3 |
| 20260506163344 | 64 | 120 | 0.9 | 1.7 | 0.00 | 0.01 | 0.00 | 33 | 1019.6 |
| 20260506162347 | 63 | 106 | 0.9 | 2.6 | 0.00 | 0.01 | 0.00 | 34 | 1019.4 |
| 20260506161842 | 62 | 101 | 0.9 | 1.7 | 0.00 | 0.01 | 0.00 | 34 | 1019.4 |
| 20260506161342 | 62 | 125 | 0.9 | 2.6 | 0.00 | 0.01 | 0.00 | 34 | 1019.4 |
| 20260506160842 | 62 | 95 | 0.9 | 2.6 | 0.00 | 0.01 | 0.00 | 34 | 1019.4 |
| 20260506160342 | 62 | 11 | 0.0 | 1.7 | 0.00 | 0.01 | 0.00 | 33 | 1019.4 |
| 20260506155842 | 62 | 46 | 0.0 | 1.7 | 0.00 | 0.01 | 0.00 | 34 | 1019.4 |
| 20260506155342 | 61 | 121 | 0.0 | 1.7 | 0.00 | 0.01 | 0.00 | 35 | 1019.4 |
| 20260506154842 | 61 | 126 | 0.0 | 1.7 | 0.00 | 0.01 | 0.00 | 35 | 1019.4 |
| 20260506154342 | 60 | 80 | 0.0 | 1.7 | 0.00 | 0.01 | 0.00 | 35 | 1019.4 |
| 20260506153840 | 60 | 52 | 0.0 | 1.7 | 0.00 | 0.01 | 0.00 | 36 | 1019.4 |
| 20260506153343 | 60 | 30 | 0.0 | 1.7 | 0.00 | 0.01 | 0.00 | 36 | 1019.3 |
| 20260506152838 | 59 | 103 | 0.0 | 1.7 | 0.00 | 0.01 | 0.00 | 38 | 1019.3 |
| 20260506152336 | 58 | 80 | 0.0 | 1.7 | 0.00 | 0.01 | 0.00 | 38 | 1019.3 |
| 20260506151836 | 58 | 80 | 0.0 | 2.6 | 0.00 | 0.01 | 0.00 | 39 | 1019.3 |
| 20260506151336 | 58 | 75 | 0.0 | 2.6 | 0.00 | 0.01 | 0.00 | 39 | 1019.3 |
| 20260506150336 | 57 | 55 | 0.0 | 1.7 | 0.00 | 0.01 | 0.00 | 38 | 1019.3 |
| 20260506145830 | 57 | 75 | 0.0 | 1.7 | 0.00 | 0.01 | 0.00 | 38 | 1019.2 |
| 20260506145328 | 57 | 93 | 0.0 | 1.7 | 0.00 | 0.01 | 0.00 | 40 | 1019.2 |
| 20260506144828 | 56 | 355 | 0.0 | 1.7 | 0.00 | 0.01 | 0.00 | 39 | 1019.2 |
| 20260506144329 | 56 | 336 | 0.0 | 0.0 | 0.00 | 0.01 | 0.00 | 40 | 1019.1 |
| 20260506143824 | 56 | 331 | 0.0 | 0.0 | 0.00 | 0.01 | 0.00 | 41 | 1019.1 |
| 20260506143322 | 56 | 327 | 0.0 | 0.0 | 0.00 | 0.01 | 0.00 | 41 | 1019.1 |
| 20260506142823 | 55 | 327 | 0.0 | 0.0 | 0.00 | 0.01 | 0.00 | 43 | 1019.1 |
| 20260506142322 | 54 | 326 | 0.0 | 1.7 | 0.00 | 0.01 | 0.00 | 43 | 1019.1 |
| 20260506141822 | 54 | 326 | 0.0 | 1.7 | 0.00 | 0.01 | 0.00 | 44 | 1019.1 |
| 20260506141322 | 53 | 214 | 0.0 | 0.0 | 0.00 | 0.01 | 0.00 | 45 | 1019.0 |
| 20260506140822 | 53 | 214 | 0.0 | 0.0 | 0.00 | 0.01 | 0.00 | 46 | 1018.9 |
| 20260506140320 | 52 | 214 | 0.0 | 0.0 | 0.00 | 0.01 | 0.00 | 47 | 1018.9 |
| 20260506135318 | 50 | 214 | 0.0 | 0.0 | 0.00 | 0.01 | 0.00 | 49 | 1018.9 |
| 20260506134316 | 49 | 214 | 0.0 | 0.0 | 0.00 | 0.01 | 0.00 | 50 | 1018.9 |
| 20260506133816 | 49 | 214 | 0.0 | 0.0 | 0.00 | 0.01 | 0.00 | 51 | 1018.8 |
| 20260506133316 | 49 | 214 | 0.0 | 0.0 | 0.00 | 0.01 | 0.00 | 52 | 1018.6 |
| 20260506132819 | 48 | 214 | 0.0 | 0.0 | 0.00 | 0.01 | 0.00 | 53 | 1018.6 |
| 20260506132314 | 47 | 214 | 0.0 | 0.0 | 0.00 | 0.01 | 0.00 | 54 | 1018.6 |
| 20260506131815 | 47 | 214 | 0.0 | 0.0 | 0.00 | 0.01 | 0.00 | 54 | 1018.5 |
| 20260506131312 | 47 | 214 | 0.0 | 0.0 | 0.00 | 0.01 | 0.00 | 54 | 1018.4 |
| 20260506130306 | 46 | 214 | 0.0 | 0.0 | 0.00 | 0.01 | 0.00 | 54 | 1018.3 |
| 20260506125804 | 46 | 214 | 0.0 | 0.0 | 0.00 | 0.01 | 0.00 | 54 | 1018.2 |
| 20260506125304 | 46 | 214 | 0.0 | 0.0 | 0.00 | 0.01 | 0.00 | 54 | 1018.2 |
| 20260506124802 | 46 | 214 | 0.0 | 0.0 | 0.00 | 0.01 | 0.00 | 54 | 1018.2 |
| 20260506124302 | 46 | 214 | 0.0 | 0.0 | 0.00 | 0.01 | 0.00 | 54 | 1018.2 |
| 20260506123802 | 46 | 214 | 0.0 | 0.0 | 0.00 | 0.01 | 0.00 | 54 | 1018.1 |
| 20260506123302 | 45 | 214 | 0.0 | 0.0 | 0.00 | 0.01 | 0.00 | 54 | 1018.1 |
| 20260506122802 | 45 | 214 | 0.0 | 0.0 | 0.00 | 0.01 | 0.00 | 55 | 1018.0 |
| 20260506122305 | 45 | 214 | 0.0 | 0.0 | 0.00 | 0.01 | 0.00 | 55 | 1018.0 |
| 20260506121803 | 45 | 214 | 0.0 | 0.0 | 0.00 | 0.01 | 0.00 | 55 | 1017.9 |
| 20260506121302 | 45 | 214 | 0.0 | 0.0 | 0.00 | 0.01 | 0.00 | 55 | 1017.6 |
| 20260506120800 | 46 | 214 | 0.0 | 0.0 | 0.00 | 0.01 | 0.00 | 54 | 1017.6 |
| 20260506120301 | 45 | 214 | 0.0 | 0.0 | 0.00 | 0.01 | 0.00 | 54 | 1017.6 |
| 20260506115758 | 45 | 214 | 0.0 | 0.0 | 0.00 | 0.01 | 0.00 | 55 | 1017.6 |
| 20260506115257 | 45 | 214 | 0.0 | 0.0 | 0.00 | 0.01 | 0.00 | 54 | 1017.7 |
| 20260506114254 | 46 | 214 | 0.0 | 0.0 | 0.00 | 0.01 | 0.00 | 54 | 1017.7 |
| 20260506113753 | 46 | 214 | 0.0 | 0.0 | 0.00 | 0.01 | 0.00 | 54 | 1017.6 |
| 20260506113248 | 46 | 214 | 0.0 | 0.0 | 0.00 | 0.01 | 0.00 | 53 | 1017.7 |
| 20260506111746 | 46 | 214 | 0.0 | 0.0 | 0.00 | 0.01 | 0.00 | 53 | 1017.6 |
| 20260506111249 | 46 | 214 | 0.0 | 0.0 | 0.00 | 0.01 | 0.00 | 53 | 1017.5 |
| 20260506110745 | 46 | 214 | 0.0 | 0.0 | 0.00 | 0.01 | 0.00 | 52 | 1017.4 |
| 20260506110244 | 46 | 214 | 0.0 | 0.0 | 0.00 | 0.01 | 0.00 | 52 | 1017.4 |
| 20260506105743 | 47 | 214 | 0.0 | 0.0 | 0.00 | 0.01 | 0.00 | 51 | 1017.4 |
| 20260506105242 | 47 | 214 | 0.0 | 0.0 | 0.00 | 0.01 | 0.00 | 50 | 1017.4 |
| 20260506104742 | 48 | 214 | 0.0 | 0.0 | 0.00 | 0.01 | 0.00 | 50 | 1017.3 |
| 20260506103740 | 48 | 214 | 0.0 | 0.0 | 0.00 | 0.01 | 0.00 | 49 | 1017.3 |
| 20260506103237 | 49 | 209 | 0.0 | 0.0 | 0.00 | 0.01 | 0.00 | 48 | 1017.2 |
| 20260506102736 | 49 | 209 | 0.0 | 0.0 | 0.00 | 0.01 | 0.00 | 48 | 1017.2 |
| 20260506102238 | 49 | 209 | 0.0 | 0.0 | 0.00 | 0.01 | 0.00 | 48 | 1017.1 |